Find Starlink 31597

NORAD ID: 59464 Int'l Des: 2024-068 Owner: SPXS Country: US Constellation: starlink operational
LEOCIRCULAR

現在のビュー

3D地球を読み込み中...

About Starlink 31597

Starlink 31597 (NORAD 59464) is a starlink constellation satellite (v2 mini) launched Apr 10, 2024 by SPXS of US. It operates in LEO, CIRCULAR orbit with a mass of 730.00 kg.

Starlink 31597について

説明を読み込み中...

次回通過

Passes for default location (London). Set your location on the main map for personalized predictions.

高度履歴

Loading altitude history...

軌道要素

1 59464U 24068K 26169.32738345 .00000396 00000-0 23900-4 0 9993
2 59464 43.0004 186.1917 0001373 273.3704 86.6991 15.27578854123865
Epoch: Jun 18, 2026 • Age: 14 hours

現在のステータス

高度 490.5 km
速度 7.62 km/s
衛星直下点 -30.53°S, 89.78°W
打ち上げ日 Apr 10, 2024
運用期間 2.1 years
タイプ internet

技術仕様

分類 Payload
質量 730.00 kg
乾燥質量 700.00 kg
総質量 730.00 kg
長さ 0.30 m
直径 4.10 m
スパン 29.00 m
形状 Box + pan
製造者 SPXS
バスタイプ Starlink V2M
フェーズステータス In Orbit
所有者/国 SPXS/US

Most Searched